sat.trackr.live / text

‹ back to catalog

KUIPER-00169

NORAD 65782 · 2025-217W

PAYLOAD ACTIVE UNKNOWN

§ Identity

Operator
Country
US
Launch date
2025-09-25
Launch site
AFETR
Launch vehicle
Mass (kg)
RCS (m²)

External: N2YO · Heavens-Above · Gunter

§ Orbital elements

Epoch: 2026-09-20T16:28:31.335456Z

Period
97.30 min
Inclination
51.9011°
Eccentricity
0.0000643
Mean motion
14.79937774 rev/d
Perigee alt
629.1 km
Apogee alt
630.0 km
Semi-major
7,007.7 km
B*
2.6005e-4
RAAN
250.8490°
Arg perigee
79.5890°
Mean anomaly
280.5145°
Rev number
5,389

§ Raw data

KUIPER-001691 65782U 25217W   26263.68647379  .00001762  00000+0  26005-3 0  99952 65782  51.9011 250.8490 0000643  79.5890 280.5145 14.79937774 53894

JSON: /api/v1/satellites/65782 · /tle

For live sub-satellite position, see the globe view (requires WebGL).

§ Visibility from observer

Set your observer location to see the next 7 days of passes ≥ 10°. The values pass through the URL so the page stays shareable.

No JS? Fill the form by hand. The geolocation button needs JavaScript.